Showing default

SPIRIT, 58468

Orbit data source: Space-Track

SPIRIT, 58468 is a payload satellite owned by U Melb. (AU) in SSO that was launched on Fri, 01 Dec 2023 UTC via an FALCON 9 launch vehicle from the Air Force Western Test Range (AFWTR). Payload-class satellites include a variety of spacecraft equipped with specific instruments for various scientific and technological missions. These include communications satellites like Starlink; space stations such as the ISS; scientific satellites like the Hubble; Earth observation satellites from companies like Planet Labs, Umbra, and HawkEye 360; GPS; miniature CubeSats for education and research; and military/defense satellites.

Loading next visibility...
Identifier
58468, 2023-185G
Orbit
SSO
Country
Flag of AUAU / AUS
Related business
Manufacturer
U Melb.
Mission
Operational Amateur Astronomy
Bus & Motor
CUBESAT 6U, Unknown motor
Mass
11.5 kg wet, 11.5 kg dry
Launch date (UTC)
2023-12-01 (2 years ago)
Launch vehicle
FALCON 9
Launch site
Air Force Western Test Range (AFWTR)
Object type
Payload
Rocket body
Debris
Shape & HBR
Box, 0.1 m
Radar Cross Section
0.080 m², Medium (>0.1 m² and < 1m²)

Expand to show TLE details & history
Last TLE update: 15 hours ago

TLE from 15 hours ago
0 SPIRIT
1 58468U 23185G   25261.30001361  .00026769  00000-0  60964-3 0  9998
2 58468  97.3671 332.2679 0009197  98.2731 261.9560 15.42880257100219
Epoch: 2025-09-18T07:12Z
TLE epoch observation values (Epoch: 2025-09-18T07:12:01.175Z)
Latitude
-0.00004°
Longitude
-133.20058°
Altitude
441.619 km
Speed
7.647 km/s
True Right ascension
22h 09m 04s
True Declination
0° 00' 00"
Sunlit
Object was in full shadow at epoch
Visualization orbit readout
Latitude
Unknown
Longitude
Unknown
Altitude
Unknown
Speed
Unknown
Apparent Right ascension
Unknown
Apparent Declination
Unknown
Sunlit
N/A
Visualization observer readout
Local Sidereal Time
15:24:56
Azimuth
Unknown
Elevation
Unknown
Doppler factor
Unknown
Orbital elements
Apogee altitude
440.813 km
Perigee altitude
428.282 km
Semi-major axis
6,812.684 km
Eccentricity
0.00092
Inclination
97.3671°
RAAN
332.2679°
Arg. of periapsis
98.2731°
True anomaly
261.85166°
Mean anomaly
261.956°
Eccentric anomaly
261.90383°
Mean motion
3.85981 °/min
Orbital period
93.27 mins
BSTAR
0.00060964
Loading maneuver chart data...
Computing Atmospheric mass density...
Loading historical data...
Loading historical data...
Loading historical data...
Loading historical data...
Loading historical data...
Loading historical data...
Loading historical data...

Documentation

Showing up to 5 results
|